This is the latest recevied weather packets stored in our database for station/object R1CBW-13. If no packets are shown the sender has not sent any weather packets the latest 10 day(s).
| Time | Temp. | Humidity | Pressure | Rain* | Wind** | Luminosity | Snow |
|---|---|---|---|---|---|---|---|
| 1776925810 | 2.78° C | 48% | 1004.3 hPa | 0 mm | - | - | - |
| 1776925750 | 2.22° C | 49% | 1004.2 hPa | 0 mm | - | - | - |
| 1776925690 | 2.22° C | 49% | 1004.3 hPa | 0 mm | - | - | - |
| 1776925630 | 2.22° C | 49% | 1004.4 hPa | 0 mm | - | - | - |
| 1776925570 | 2.22° C | 49% | 1004.3 hPa | 0 mm | - | - | - |
| 1776925510 | 1.67° C | 49% | 1004.4 hPa | 0 mm | - | - | - |
| 1776925450 | 1.67° C | 50% | 1004.3 hPa | 0 mm | - | - | - |
| 1776925390 | 2.22° C | 50% | 1004.3 hPa | 0 mm | - | - | - |
| 1776925330 | 2.22° C | 49% | 1004.3 hPa | 0 mm | - | - | - |
| 1776925270 | 1.67° C | 49% | 1004.3 hPa | 0 mm | - | - | - |
| 1776925210 | 2.78° C | 48% | 1004.3 hPa | 0 mm | - | - | - |
| 1776925150 | 2.78° C | 48% | 1004.2 hPa | 0 mm | - | - | - |
| 1776925090 | 2.22° C | 49% | 1004.2 hPa | 0 mm | - | - | - |
| 1776925030 | 3.33° C | 47% | 1004.3 hPa | 0 mm | - | - | - |
| 1776924970 | 2.22° C | 48% | 1004.1 hPa | 0 mm | - | - | - |
| 1776924910 | 2.22° C | 49% | 1004.1 hPa | 0 mm | - | - | - |
| 1776924850 | 2.22° C | 49% | 1004.3 hPa | 0 mm | - | - | - |
| 1776924790 | 2.22° C | 49% | 1004.3 hPa | 0 mm | - | - | - |
| 1776924730 | 2.78° C | 47% | 1004.3 hPa | 0 mm | - | - | - |
| 1776924670 | 2.78° C | 48% | 1004.2 hPa | 0 mm | - | - | - |
| 1776924610 | 2.78° C | 48% | 1004.2 hPa | 0 mm | - | - | - |
| 1776924550 | 2.22° C | 49% | 1004.1 hPa | 0 mm | - | - | - |
| 1776924490 | 1.67° C | 50% | 1004.1 hPa | 0 mm | - | - | - |
| 1776924430 | 2.22° C | 49% | 1004.1 hPa | 0 mm | - | - | - |
| 1776924370 | 1.67° C | 49% | 1004.4 hPa | 0 mm | - | - | - |
* Rain latest hour (hover to see other rain measurements)
** Current wind speed in m/s (hover to see current wind gust speed)